,,PressureMeas_1m,,PRMeasQMR101_1,,RHStat155_1m_1,,SRMeasQMS101R_1m,,TAStat155_1m_1,,GenWind_1,,GenWind_1,
2019-03-03, 00:00:06,VALID,917.238,VALID,0.0,VALID,97.063,VALID,-0.027,VALID,20.549,VALID,60.0,VALID,0.0,
2019-03-03, 00:01:06,VALID,917.228,VALID,0.0,VALID,97.16,VALID,-0.015,VALID,20.568,VALID,61.0,VALID,0.0,
2019-03-03, 00:02:06,VALID,917.2,VALID,0.0,VALID,97.228,VALID,-0.011,VALID,20.569,VALID,60.0,VALID,0.0,
2019-03-03, 00:03:06,VALID,917.196,VALID,0.0,VALID,97.279,VALID,-0.014,VALID,20.555,VALID,60.0,VALID,0.0,
2019-03-03, 00:04:06,VALID,917.187,VALID,0.0,VALID,97.199,VALID,-0.027,VALID,20.523,VALID,60.0,VALID,0.0,
2019-03-03, 00:05:06,VALID,917.175,VALID,0.0,VALID,97.207,VALID,-0.035,VALID,20.527,VALID,60.0,VALID,0.0,
2019-03-03, 00:06:06,VALID,917.167,VALID,0.0,VALID,97.348,VALID,-0.021,VALID,20.571,VALID,60.0,VALID,0.0,
2019-03-03, 00:07:06,VALID,917.145,VALID,0.0,VALID,97.441,VALID,-0.013,VALID,20.597,VALID,60.0,VALID,0.0,
2019-03-03, 00:08:06,VALID,917.103,VALID,0.0,VALID,97.486,VALID,-0.009,VALID,20.599,VALID,60.0,VALID,0.0,
2019-03-03, 00:09:06,VALID,917.089,VALID,0.0,VALID,97.407,VALID,-0.029,VALID,20.586,VALID,61.0,VALID,0.0,
2019-03-03, 00:10:06,VALID,917.065,VALID,0.0,VALID,97.381,VALID,-0.018,VALID,20.574,VALID,61.0,VALID,0.0,
2019-03-03, 00:11:06,VALID,917.035,VALID,0.0,VALID,97.168,VALID,-0.019,VALID,20.492,VALID,61.0,VALID,0.0,
2019-03-03, 00:12:06,VALID,917.035,VALID,0.0,VALID,96.673,VALID,-0.019,VALID,20.375,VALID,61.0,VALID,0.0,
2019-03-03, 00:13:06,VALID,917.018,VALID,0.0,VALID,96.543,VALID,-0.0,VALID,20.33,VALID,61.0,VALID,0.0,
2019-03-03, 00:14:06,VALID,916.988,VALID,0.0,VALID,96.662,VALID,-0.003,VALID,20.331,VALID,61.0,VALID,0.0,
2019-03-03, 00:15:06,VALID,916.969,VALID,0.0,VALID,96.809,VALID,-0.019,VALID,20.34,VALID,62.0,VALID,0.0,
2019-03-03, 00:16:06,VALID,916.936,VALID,0.0,VALID,96.956,VALID,-0.007,VALID,20.367,VALID,62.0,VALID,0.0,
2019-03-03, 00:17:06,VALID,916.917,VALID,0.0,VALID,97.003,VALID,-0.008,VALID,20.364,VALID,61.0,VALID,0.0,
2019-03-03, 00:18:06,VALID,916.875,VALID,0.0,VALID,96.847,VALID,-0.011,VALID,20.334,INVALID,360.0,VALID,0.0,
2019-03-03, 00:19:06,VALID,916.839,VALID,0.0,VALID,96.897,VALID,-0.016,VALID,20.364,INVALID,360.0,VALID,0.0,
2019-03-03, 00:20:06,VALID,916.813,VALID,0.0,VALID,97.321,VALID,-0.011,VALID,20.466,INVALID,360.0,VALID,0.0,
2019-03-03, 00:21:06,VALID,916.772,VALID,0.0,VALID,97.535,VALID,-0.031,VALID,20.523,INVALID,360.0,VALID,0.0,
2019-03-03, 00:22:06,VALID,916.726,VALID,0.0,VALID,97.721,VALID,-0.024,VALID,20.586,INVALID,360.0,VALID,0.0,
2019-03-03, 00:23:06,VALID,916.693,VALID,0.0,VALID,97.791,VALID,-0.008,VALID,20.615,INVALID,360.0,VALID,0.0,
2019-03-03, 00:24:06,VALID,916.681,VALID,0.0,VALID,97.773,VALID,-0.019,VALID,20.611,INVALID,360.0,VALID,0.0,
2019-03-03, 00:25:06,VALID,916.672,VALID,0.0,VALID,97.778,VALID,-0.018,VALID,20.6,INVALID,360.0,VALID,0.0,
2019-03-03, 00:26:06,VALID,916.677,VALID,0.0,VALID,97.683,VALID,-0.023,VALID,20.552,INVALID,360.0,VALID,0.0,
2019-03-03, 00:27:06,VALID,916.651,VALID,0.0,VALID,97.318,VALID,-0.023,VALID,20.407,INVALID,360.0,VALID,0.0,
2019-03-03, 00:28:06,VALID,916.656,VALID,0.0,VALID,96.957,VALID,-0.006,VALID,20.299,INVALID,360.0,VALID,0.0,
2019-03-03, 00:29:06,VALID,916.656,VALID,0.0,VALID,96.927,VALID,0.008,VALID,20.272,INVALID,360.0,VALID,0.0,
2019-03-03, 00:30:06,VALID,916.658,VALID,0.0,VALID,97.057,VALID,0.024,VALID,20.274,INVALID,360.0,VALID,0.0,
2019-03-03, 00:31:06,VALID,916.655,VALID,0.0,VALID,97.401,VALID,0.029,VALID,20.35,INVALID,360.0,VALID,0.0,
2019-03-03, 00:32:06,VALID,916.658,VALID,0.0,VALID,97.749,VALID,0.03,VALID,20.428,INVALID,360.0,VALID,0.0,
2019-03-03, 00:33:06,VALID,916.661,VALID,0.0,VALID,97.798,VALID,0.02,VALID,20.406,INVALID,360.0,VALID,0.0,
2019-03-03, 00:34:06,VALID,916.664,VALID,0.0,VALID,97.809,VALID,0.023,VALID,20.384,INVALID,360.0,VALID,0.0,
2019-03-03, 00:35:06,VALID,916.666,VALID,0.0,VALID,97.895,VALID,0.008,VALID,20.403,INVALID,360.0,VALID,0.0,
2019-03-03, 00:36:06,VALID,916.67,VALID,0.0,VALID,97.921,VALID,0.032,VALID,20.414,INVALID,360.0,VALID,0.0,
2019-03-03, 00:37:06,VALID,916.654,VALID,0.0,VALID,97.961,VALID,0.021,VALID,20.427,INVALID,360.0,VALID,0.0,
2019-03-03, 00:38:06,VALID,916.657,VALID,0.0,VALID,97.711,VALID,0.013,VALID,20.288,INVALID,360.0,VALID,0.0,
2019-03-03, 00:39:06,VALID,916.641,VALID,0.0,VALID,97.363,VALID,0.004,VALID,20.131,INVALID,360.0,VALID,0.0,
2019-03-03, 00:40:06,VALID,916.661,VALID,0.0,VALID,97.103,VALID,0.023,VALID,20.034,INVALID,360.0,VALID,0.0,
2019-03-03, 00:41:06,VALID,916.639,VALID,0.0,VALID,97.301,VALID,0.026,VALID,20.075,INVALID,360.0,VALID,0.0,
2019-03-03, 00:42:06,VALID,916.607,VALID,0.0,VALID,97.693,VALID,0.023,VALID,20.174,INVALID,360.0,VALID,0.0,
2019-03-03, 00:43:06,VALID,916.598,VALID,0.0,VALID,97.919,VALID,0.004,VALID,20.233,INVALID,360.0,VALID,0.0,
2019-03-03, 00:44:06,VALID,916.581,VALID,0.0,VALID,98.062,VALID,0.005,VALID,20.288,INVALID,360.0,VALID,0.0,
2019-03-03, 00:45:06,VALID,916.557,VALID,0.0,VALID,98.159,VALID,-0.007,VALID,20.313,INVALID,360.0,VALID,0.0,
2019-03-03, 00:46:06,VALID,916.539,VALID,0.0,VALID,98.191,VALID,-0.016,VALID,20.317,INVALID,360.0,VALID,0.0,
2019-03-03, 00:47:06,VALID,916.517,VALID,0.0,VALID,98.197,VALID,-0.013,VALID,20.305,INVALID,360.0,VALID,0.0,
2019-03-03, 00:48:06,VALID,916.493,VALID,0.0,VALID,98.187,VALID,-0.018,VALID,20.28,INVALID,360.0,VALID,0.0,
2019-03-03, 00:49:06,VALID,916.469,VALID,0.0,VALID,98.131,VALID,-0.004,VALID,20.228,INVALID,360.0,VALID,0.0,
2019-03-03, 00:50:06,VALID,916.468,VALID,0.0,VALID,97.985,VALID,-0.015,VALID,20.132,INVALID,360.0,VALID,0.0,
2019-03-03, 00:51:06,VALID,916.448,VALID,0.0,VALID,98.034,VALID,-0.019,VALID,20.117,INVALID,360.0,VALID,0.0,
2019-03-03, 00:52:06,VALID,916.437,VALID,0.0,VALID,98.079,VALID,-0.01,VALID,20.117,INVALID,360.0,VALID,0.0,
2019-03-03, 00:53:06,VALID,916.441,VALID,0.0,VALID,97.888,VALID,-0.018,VALID,19.973,INVALID,360.0,VALID,0.0,
2019-03-03, 00:54:06,VALID,916.442,VALID,0.0,VALID,97.811,VALID,-0.012,VALID,19.966,INVALID,360.0,VALID,0.0,
2019-03-03, 00:55:06,VALID,916.435,VALID,0.0,VALID,98.083,VALID,-0.016,VALID,20.096,INVALID,360.0,VALID,0.0,
2019-03-03, 00:56:06,VALID,916.426,VALID,0.0,VALID,98.206,VALID,-0.023,VALID,20.171,INVALID,360.0,VALID,0.0,
2019-03-03, 00:57:06,VALID,916.445,VALID,0.0,VALID,98.303,VALID,-0.008,VALID,20.24,INVALID,360.0,VALID,0.0,
2019-03-03, 00:58:06,VALID,916.461,VALID,0.0,VALID,98.317,VALID,-0.011,VALID,20.254,INVALID,360.0,VALID,0.0,
2019-03-03, 00:59:06,VALID,916.48,VALID,0.0,VALID,98.29,VALID,-0.046,VALID,20.228,INVALID,360.0,VALID,0.0,
2019-03-03, 01:00:06,VALID,916.502,VALID,0.0,VALID,98.228,VALID,-0.03,VALID,20.19,INVALID,360.0,VALID,0.0,
2019-03-03, 01:01:06,VALID,916.509,VALID,0.0,VALID,98.262,VALID,-0.049,VALID,20.192,INVALID,360.0,VALID,0.0,
2019-03-03, 01:02:06,VALID,916.515,VALID,0.0,VALID,98.235,VALID,-0.04,VALID,20.197,INVALID,360.0,VALID,0.0,
2019-03-03, 01:03:06,VALID,916.5,VALID,0.0,VALID,98.204,VALID,-0.03,VALID,20.192,INVALID,360.0,VALID,0.0,
2019-03-03, 01:04:06,VALID,916.483,VALID,0.0,VALID,97.642,VALID,-0.041,VALID,19.926,INVALID,360.0,VALID,0.0,
2019-03-03, 01:05:06,VALID,916.442,VALID,0.0,VALID,97.339,VALID,-0.056,VALID,19.777,INVALID,360.0,VALID,0.0,
2019-03-03, 01:06:06,VALID,916.421,VALID,0.0,VALID,97.835,VALID,-0.03,VALID,19.923,INVALID,360.0,VALID,0.0,
2019-03-03, 01:07:06,VALID,916.437,VALID,0.0,VALID,98.107,VALID,-0.026,VALID,20.033,INVALID,360.0,VALID,0.0,
2019-03-03, 01:08:06,VALID,916.416,VALID,0.0,VALID,98.028,VALID,-0.049,VALID,19.968,INVALID,360.0,VALID,0.0,
2019-03-03, 01:09:06,VALID,916.42,VALID,0.0,VALID,97.957,VALID,-0.041,VALID,19.897,INVALID,360.0,VALID,0.0,
2019-03-03, 01:10:06,VALID,916.408,VALID,0.0,VALID,98.125,VALID,-0.026,VALID,19.966,INVALID,360.0,VALID,0.0,
2019-03-03, 01:11:06,VALID,916.403,VALID,0.0,VALID,98.229,VALID,-0.034,VALID,19.998,INVALID,360.0,VALID,0.0,
2019-03-03, 01:12:06,VALID,916.393,VALID,0.0,VALID,98.298,VALID,-0.019,VALID,20.035,INVALID,360.0,VALID,0.0,
2019-03-03, 01:13:06,VALID,916.379,VALID,0.0,VALID,98.299,VALID,-0.021,VALID,20.026,INVALID,360.0,VALID,0.0,
2019-03-03, 01:14:06,VALID,916.379,VALID,0.0,VALID,98.294,VALID,-0.02,VALID,19.992,INVALID,360.0,VALID,0.0,
2019-03-03, 01:15:06,VALID,916.377,VALID,0.0,VALID,98.217,VALID,-0.026,VALID,19.903,INVALID,360.0,VALID,0.0,
2019-03-03, 01:16:06,VALID,916.366,VALID,0.0,VALID,98.102,VALID,-0.006,VALID,19.811,INVALID,360.0,VALID,0.0,
2019-03-03, 01:17:06,VALID,916.35,VALID,0.0,VALID,98.017,VALID,-0.026,VALID,19.749,INVALID,360.0,VALID,0.0,
2019-03-03, 01:18:06,VALID,916.324,VALID,0.0,VALID,98.091,VALID,-0.032,VALID,19.769,INVALID,360.0,VALID,0.0,
2019-03-03, 01:19:06,VALID,916.278,VALID,0.0,VALID,98.404,VALID,-0.022,VALID,19.981,INVALID,360.0,VALID,0.0,
2019-03-03, 01:20:06,VALID,916.255,VALID,0.0,VALID,98.456,VALID,-0.027,VALID,20.036,INVALID,360.0,VALID,0.0,
2019-03-03, 01:21:06,VALID,916.244,VALID,0.0,VALID,98.452,VALID,-0.032,VALID,20.063,INVALID,360.0,VALID,0.0,
2019-03-03, 01:22:06,VALID,916.2,VALID,0.0,VALID,98.526,VALID,-0.028,VALID,20.162,INVALID,360.0,VALID,0.0,
2019-03-03, 01:23:06,VALID,916.189,VALID,0.0,VALID,98.331,VALID,-0.02,VALID,20.039,INVALID,360.0,VALID,0.0,
2019-03-03, 01:24:06,VALID,916.175,VALID,0.0,VALID,97.836,VALID,-0.015,VALID,19.79,INVALID,360.0,VALID,0.0,
2019-03-03, 01:25:06,VALID,916.148,VALID,0.0,VALID,97.9,VALID,-0.034,VALID,19.782,INVALID,360.0,VALID,0.0,
2019-03-03, 01:26:06,VALID,916.116,VALID,0.0,VALID,97.989,VALID,-0.029,VALID,19.845,INVALID,360.0,VALID,0.0,
2019-03-03, 01:27:06,VALID,916.1,VALID,0.0,VALID,98.228,VALID,-0.023,VALID,19.949,INVALID,360.0,VALID,0.0,
2019-03-03, 01:28:06,VALID,916.094,VALID,0.0,VALID,98.183,VALID,0.001,VALID,19.925,INVALID,360.0,VALID,0.0,
2019-03-03, 01:29:06,VALID,916.071,VALID,0.0,VALID,98.152,VALID,-0.025,VALID,19.858,INVALID,360.0,VALID,0.0,
2019-03-03, 01:30:06,VALID,916.043,VALID,0.0,VALID,98.151,VALID,-0.015,VALID,19.805,INVALID,360.0,VALID,0.0,
2019-03-03, 01:31:06,VALID,916.036,VALID,0.0,VALID,98.222,VALID,-0.024,VALID,19.803,INVALID,360.0,VALID,0.0,
2019-03-03, 01:32:06,VALID,916.03,VALID,0.0,VALID,98.236,VALID,-0.004,VALID,19.759,INVALID,360.0,VALID,0.0,
2019-03-03, 01:33:06,VALID,916.001,VALID,0.0,VALID,98.275,VALID,-0.02,VALID,19.733,INVALID,360.0,VALID,0.0,
2019-03-03, 01:34:06,VALID,915.982,VALID,0.0,VALID,98.308,VALID,-0.006,VALID,19.707,INVALID,360.0,VALID,0.0,
2019-03-03, 01:35:06,VALID,915.962,VALID,0.0,VALID,98.326,VALID,-0.001,VALID,19.7,INVALID,360.0,VALID,0.0,
2019-03-03, 01:36:06,VALID,915.956,VALID,0.0,VALID,98.447,VALID,-0.018,VALID,19.729,INVALID,360.0,VALID,0.0,
2019-03-03, 01:37:06,VALID,915.944,VALID,0.0,VALID,98.473,VALID,-0.0,VALID,19.729,INVALID,360.0,VALID,0.0,
2019-03-03, 01:38:06,VALID,915.934,VALID,0.0,VALID,98.54,VALID,-0.026,VALID,19.745,INVALID,360.0,VALID,0.0,
2019-03-03, 01:39:06,VALID,915.911,VALID,0.0,VALID,98.486,VALID,-0.029,VALID,19.689,INVALID,360.0,VALID,0.0,
2019-03-03, 01:40:06,VALID,915.897,VALID,0.0,VALID,98.512,VALID,-0.017,VALID,19.669,INVALID,360.0,VALID,0.0,
2019-03-03, 01:41:06,VALID,915.892,VALID,0.0,VALID,98.591,VALID,-0.009,VALID,19.68,INVALID,360.0,VALID,0.0,
2019-03-03, 01:42:06,VALID,915.876,VALID,0.0,VALID,98.578,VALID,-0.014,VALID,19.643,INVALID,360.0,VALID,0.0,
2019-03-03, 01:43:06,VALID,915.858,VALID,0.0,VALID,98.63,VALID,-0.009,VALID,19.657,INVALID,360.0,VALID,0.0,
2019-03-03, 01:44:06,VALID,915.86,VALID,0.0,VALID,98.637,VALID,-0.023,VALID,19.633,INVALID,360.0,VALID,0.0,
2019-03-03, 01:45:06,VALID,915.835,VALID,0.0,VALID,98.621,VALID,-0.022,VALID,19.585,INVALID,360.0,VALID,0.0,
2019-03-03, 01:46:06,VALID,915.839,VALID,0.0,VALID,98.663,VALID,-0.018,VALID,19.578,INVALID,360.0,VALID,0.0,
2019-03-03, 01:47:06,VALID,915.81,VALID,0.0,VALID,98.683,VALID,-0.011,VALID,19.581,INVALID,360.0,VALID,0.0,
2019-03-03, 01:48:06,VALID,915.815,VALID,0.0,VALID,98.733,VALID,-0.011,VALID,19.615,INVALID,360.0,VALID,0.0,
2019-03-03, 01:49:06,VALID,915.773,VALID,0.0,VALID,98.802,VALID,-0.007,VALID,19.696,INVALID,360.0,VALID,0.0,
2019-03-03, 01:50:06,VALID,915.754,VALID,0.0,VALID,98.819,VALID,-0.019,VALID,19.694,INVALID,360.0,VALID,0.0,
2019-03-03, 01:51:06,VALID,915.716,VALID,0.0,VALID,98.789,VALID,-0.014,VALID,19.68,INVALID,360.0,VALID,0.0,
2019-03-03, 01:52:06,VALID,915.678,VALID,0.0,VALID,98.843,VALID,-0.005,VALID,19.703,INVALID,360.0,VALID,0.0,
2019-03-03, 01:53:06,VALID,915.646,VALID,0.0,VALID,98.852,VALID,0.004,VALID,19.743,INVALID,360.0,VALID,0.0,
2019-03-03, 01:54:06,VALID,915.609,VALID,0.0,VALID,98.916,VALID,0.007,VALID,19.786,INVALID,360.0,VALID,0.0,
2019-03-03, 01:55:06,VALID,915.605,VALID,0.0,VALID,98.93,VALID,-0.0,VALID,19.787,INVALID,360.0,VALID,0.0,
2019-03-03, 01:56:06,VALID,915.592,VALID,0.0,VALID,98.915,VALID,0.014,VALID,19.784,INVALID,360.0,VALID,0.0,
2019-03-03, 01:57:06,VALID,915.582,VALID,0.0,VALID,98.931,VALID,-0.006,VALID,19.795,INVALID,360.0,VALID,0.0,
2019-03-03, 01:58:06,VALID,915.58,VALID,0.0,VALID,98.927,VALID,-0.01,VALID,19.81,INVALID,360.0,VALID,0.0,
2019-03-03, 01:59:06,VALID,915.583,VALID,0.0,VALID,98.956,VALID,-0.007,VALID,19.809,INVALID,360.0,VALID,0.0,
2019-03-03, 02:00:06,VALID,915.572,VALID,0.0,VALID,98.896,VALID,-0.009,VALID,19.75,INVALID,360.0,VALID,0.0,
2019-03-03, 02:01:06,VALID,915.589,VALID,0.0,VALID,98.885,VALID,0.005,VALID,19.707,INVALID,360.0,VALID,0.0,
2019-03-03, 02:02:06,VALID,915.592,VALID,0.0,VALID,98.917,VALID,-0.021,VALID,19.704,INVALID,360.0,VALID,0.0,
2019-03-03, 02:03:06,VALID,915.58,VALID,0.0,VALID,98.914,VALID,-0.005,VALID,19.696,INVALID,360.0,VALID,0.0,
2019-03-03, 02:04:06,VALID,915.578,VALID,0.0,VALID,98.959,VALID,-0.018,VALID,19.723,INVALID,360.0,VALID,0.0,
2019-03-03, 02:05:06,VALID,915.545,VALID,0.0,VALID,99.013,VALID,-0.009,VALID,19.779,INVALID,360.0,VALID,0.0,
2019-03-03, 02:06:06,VALID,915.528,VALID,0.0,VALID,99.023,VALID,-0.017,VALID,19.809,INVALID,360.0,VALID,0.0,
2019-03-03, 02:07:06,VALID,915.502,VALID,0.0,VALID,99.006,VALID,-0.006,VALID,19.814,INVALID,360.0,VALID,0.0,
2019-03-03, 02:08:06,VALID,915.507,VALID,0.0,VALID,98.999,VALID,0.008,VALID,19.82,INVALID,360.0,VALID,0.0,
2019-03-03, 02:09:06,VALID,915.503,VALID,0.0,VALID,99.011,VALID,-0.005,VALID,19.829,INVALID,360.0,VALID,0.0,
2019-03-03, 02:10:06,VALID,915.524,VALID,0.0,VALID,99.009,VALID,-0.004,VALID,19.839,INVALID,360.0,VALID,0.0,
2019-03-03, 02:11:06,VALID,915.526,VALID,0.0,VALID,98.988,VALID,-0.014,VALID,19.81,INVALID,360.0,VALID,0.0,
2019-03-03, 02:12:06,VALID,915.543,VALID,0.0,VALID,98.907,VALID,-0.015,VALID,19.695,INVALID,360.0,VALID,0.0,
2019-03-03, 02:13:06,VALID,915.578,VALID,0.0,VALID,98.842,VALID,-0.007,VALID,19.575,INVALID,360.0,VALID,0.0,
2019-03-03, 02:14:06,VALID,915.587,VALID,0.0,VALID,98.842,VALID,-0.009,VALID,19.493,INVALID,360.0,VALID,0.0,
2019-03-03, 02:15:06,VALID,915.593,VALID,0.0,VALID,98.87,VALID,-0.025,VALID,19.49,INVALID,360.0,VALID,0.0,
2019-03-03, 02:16:06,VALID,915.575,VALID,0.0,VALID,98.974,VALID,-0.01,VALID,19.537,INVALID,360.0,VALID,0.0,
2019-03-03, 02:17:06,VALID,915.555,VALID,0.0,VALID,98.95,VALID,-0.016,VALID,19.524,INVALID,360.0,VALID,0.0,
2019-03-03, 02:18:06,VALID,915.527,VALID,0.0,VALID,98.937,VALID,-0.03,VALID,19.508,INVALID,360.0,VALID,0.0,
2019-03-03, 02:19:06,VALID,915.538,VALID,0.0,VALID,99.002,VALID,-0.005,VALID,19.588,INVALID,360.0,VALID,0.0,
2019-03-03, 02:20:06,VALID,915.508,VALID,0.0,VALID,99.019,VALID,-0.014,VALID,19.6,INVALID,360.0,VALID,0.0,
2019-03-03, 02:21:06,VALID,915.523,VALID,0.0,VALID,98.952,VALID,-0.007,VALID,19.453,INVALID,360.0,VALID,0.0,
2019-03-03, 02:22:06,VALID,915.513,VALID,0.0,VALID,98.912,VALID,-0.007,VALID,19.419,INVALID,360.0,VALID,0.0,
2019-03-03, 02:23:06,VALID,915.494,VALID,0.0,VALID,98.985,VALID,-0.006,VALID,19.543,INVALID,360.0,VALID,0.0,
2019-03-03, 02:24:06,VALID,915.484,VALID,0.0,VALID,99.017,VALID,-0.015,VALID,19.509,INVALID,360.0,VALID,0.0,
2019-03-03, 02:25:06,VALID,915.458,VALID,0.0,VALID,98.94,VALID,-0.031,VALID,19.464,INVALID,360.0,VALID,0.0,
2019-03-03, 02:26:06,VALID,915.455,VALID,0.0,VALID,99.025,VALID,-0.016,VALID,19.543,INVALID,360.0,VALID,0.0,
2019-03-03, 02:27:06,VALID,915.423,VALID,0.0,VALID,99.069,VALID,-0.022,VALID,19.643,INVALID,360.0,VALID,0.0,
2019-03-03, 02:28:06,VALID,915.414,VALID,0.0,VALID,99.095,VALID,-0.003,VALID,19.727,INVALID,360.0,VALID,0.0,
2019-03-03, 02:29:06,VALID,915.414,VALID,0.0,VALID,99.07,VALID,0.009,VALID,19.642,INVALID,360.0,VALID,0.0,
2019-03-03, 02:30:06,VALID,915.427,VALID,0.0,VALID,98.96,VALID,0.011,VALID,19.492,INVALID,360.0,VALID,0.0,
2019-03-03, 02:31:06,VALID,915.421,VALID,0.0,VALID,98.988,VALID,0.007,VALID,19.54,INVALID,360.0,VALID,0.0,
2019-03-03, 02:32:06,VALID,915.433,VALID,0.0,VALID,99.033,VALID,0.004,VALID,19.572,INVALID,360.0,VALID,0.0,
2019-03-03, 02:33:06,VALID,915.408,VALID,0.0,VALID,99.044,VALID,0.0,VALID,19.601,INVALID,360.0,VALID,0.0,
2019-03-03, 02:34:06,VALID,915.416,VALID,0.0,VALID,99.027,VALID,0.016,VALID,19.6,INVALID,360.0,VALID,0.0,
2019-03-03, 02:35:06,VALID,915.427,VALID,0.0,VALID,99.051,VALID,0.003,VALID,19.61,INVALID,360.0,VALID,0.0,
2019-03-03, 02:36:06,VALID,915.434,VALID,0.0,VALID,99.035,VALID,0.017,VALID,19.568,INVALID,360.0,VALID,0.0,
2019-03-03, 02:37:06,VALID,915.458,VALID,0.0,VALID,99.032,VALID,0.012,VALID,19.561,INVALID,360.0,VALID,0.0,
2019-03-03, 02:38:06,VALID,915.461,VALID,0.0,VALID,99.011,VALID,0.012,VALID,19.507,INVALID,360.0,VALID,0.0,
2019-03-03, 02:39:06,VALID,915.436,VALID,0.0,VALID,99.023,VALID,-0.003,VALID,19.535,INVALID,360.0,VALID,0.0,
2019-03-03, 02:40:06,VALID,915.448,VALID,0.0,VALID,99.015,VALID,0.013,VALID,19.44,INVALID,360.0,VALID,0.0,
2019-03-03, 02:41:06,VALID,915.435,VALID,0.0,VALID,98.908,VALID,0.0,VALID,19.256,INVALID,360.0,VALID,0.0,
2019-03-03, 02:42:06,VALID,915.41,VALID,0.0,VALID,99.055,VALID,0.011,VALID,19.523,INVALID,360.0,VALID,0.0,
2019-03-03, 02:43:06,VALID,915.394,VALID,0.0,VALID,99.172,VALID,0.003,VALID,19.758,VALID,64.0,VALID,0.0,
2019-03-03, 02:44:06,VALID,915.375,VALID,0.0,VALID,99.184,VALID,0.01,VALID,19.854,VALID,66.0,VALID,0.0,
2019-03-03, 02:45:06,VALID,915.351,VALID,0.0,VALID,99.186,VALID,0.001,VALID,19.934,INVALID,360.0,VALID,0.0,
2019-03-03, 02:46:06,VALID,915.319,VALID,0.0,VALID,99.2,VALID,0.01,VALID,20.035,INVALID,360.0,VALID,0.0,
2019-03-03, 02:47:06,VALID,915.327,VALID,0.0,VALID,99.159,VALID,-0.002,VALID,19.949,INVALID,360.0,VALID,0.0,
2019-03-03, 02:48:06,VALID,915.304,VALID,0.0,VALID,99.025,VALID,0.011,VALID,19.73,INVALID,360.0,VALID,0.0,
2019-03-03, 02:49:06,VALID,915.293,VALID,0.0,VALID,99.012,VALID,0.012,VALID,19.674,INVALID,360.0,VALID,0.0,
2019-03-03, 02:50:06,VALID,915.278,VALID,0.0,VALID,98.972,VALID,0.011,VALID,19.566,INVALID,360.0,VALID,0.0,
2019-03-03, 02:51:06,VALID,915.274,VALID,0.0,VALID,98.974,VALID,0.002,VALID,19.495,INVALID,360.0,VALID,0.0,
2019-03-03, 02:52:06,VALID,915.272,VALID,0.0,VALID,99.023,VALID,0.022,VALID,19.499,INVALID,360.0,VALID,0.0,
2019-03-03, 02:53:06,VALID,915.274,VALID,0.0,VALID,98.967,VALID,0.015,VALID,19.372,INVALID,360.0,VALID,0.0,
2019-03-03, 02:54:06,VALID,915.282,VALID,0.0,VALID,98.999,VALID,0.017,VALID,19.378,INVALID,360.0,VALID,0.0,
2019-03-03, 02:55:06,VALID,915.269,VALID,0.0,VALID,99.032,VALID,0.016,VALID,19.409,INVALID,360.0,VALID,0.0,
2019-03-03, 02:56:06,VALID,915.28,VALID,0.0,VALID,99.027,VALID,0.014,VALID,19.41,INVALID,360.0,VALID,0.0,
2019-03-03, 02:57:06,VALID,915.28,VALID,0.0,VALID,99.08,VALID,0.015,VALID,19.451,INVALID,360.0,VALID,0.0,
2019-03-03, 02:58:06,VALID,915.277,VALID,0.0,VALID,99.032,VALID,0.003,VALID,19.385,INVALID,360.0,VALID,0.0,
2019-03-03, 02:59:06,VALID,915.279,VALID,0.0,VALID,99.008,VALID,0.042,VALID,19.359,INVALID,360.0,VALID,0.0,
2019-03-03, 03:00:06,VALID,915.285,VALID,0.0,VALID,99.073,VALID,0.026,VALID,19.409,INVALID,360.0,VALID,0.0,
2019-03-03, 03:01:06,VALID,915.306,VALID,0.0,VALID,99.125,VALID,0.025,VALID,19.483,INVALID,360.0,VALID,0.0,
2019-03-03, 03:02:06,VALID,915.325,VALID,0.0,VALID,99.12,VALID,0.027,VALID,19.534,INVALID,360.0,VALID,0.0,
2019-03-03, 03:03:06,VALID,915.332,VALID,0.0,VALID,99.113,VALID,0.028,VALID,19.567,INVALID,360.0,VALID,0.0,
2019-03-03, 03:04:06,VALID,915.326,VALID,0.0,VALID,99.135,VALID,0.025,VALID,19.593,INVALID,360.0,VALID,0.0,
2019-03-03, 03:05:06,VALID,915.318,VALID,0.0,VALID,99.129,VALID,0.035,VALID,19.585,INVALID,360.0,VALID,0.0,
2019-03-03, 03:06:06,VALID,915.318,VALID,0.0,VALID,99.095,VALID,0.048,VALID,19.522,INVALID,360.0,VALID,0.0,
2019-03-03, 03:07:06,VALID,915.278,VALID,0.0,VALID,99.086,VALID,0.038,VALID,19.491,INVALID,360.0,VALID,0.0,
2019-03-03, 03:08:06,VALID,915.253,VALID,0.0,VALID,99.1,VALID,0.021,VALID,19.495,INVALID,360.0,VALID,0.0,
2019-03-03, 03:09:06,VALID,915.236,VALID,0.0,VALID,99.12,VALID,0.037,VALID,19.542,INVALID,360.0,VALID,0.0,
2019-03-03, 03:10:06,VALID,915.244,VALID,0.0,VALID,99.123,VALID,0.017,VALID,19.553,INVALID,360.0,VALID,0.0,
2019-03-03, 03:11:06,VALID,915.248,VALID,0.0,VALID,99.153,VALID,0.026,VALID,19.582,INVALID,360.0,VALID,0.0,
2019-03-03, 03:12:06,VALID,915.243,VALID,0.0,VALID,99.151,VALID,0.021,VALID,19.593,INVALID,360.0,VALID,0.0,
2019-03-03, 03:13:06,VALID,915.258,VALID,0.0,VALID,99.136,VALID,0.004,VALID,19.587,INVALID,360.0,VALID,0.0,
2019-03-03, 03:14:06,VALID,915.257,VALID,0.0,VALID,99.142,VALID,0.002,VALID,19.575,INVALID,360.0,VALID,0.0,
2019-03-03, 03:15:06,VALID,915.227,VALID,0.0,VALID,99.112,VALID,0.017,VALID,19.52,INVALID,360.0,VALID,0.0,
2019-03-03, 03:16:06,VALID,915.202,VALID,0.0,VALID,99.112,VALID,0.013,VALID,19.523,INVALID,360.0,VALID,0.0,
2019-03-03, 03:17:06,VALID,915.199,VALID,0.0,VALID,99.196,VALID,0.016,VALID,19.623,INVALID,360.0,VALID,0.0,
2019-03-03, 03:18:06,VALID,915.174,VALID,0.0,VALID,99.196,VALID,0.01,VALID,19.685,INVALID,360.0,VALID,0.0,
2019-03-03, 03:19:06,VALID,915.151,VALID,0.0,VALID,99.206,VALID,0.031,VALID,19.669,INVALID,360.0,VALID,0.0,
2019-03-03, 03:20:06,VALID,915.115,VALID,0.0,VALID,99.171,VALID,0.015,VALID,19.618,INVALID,360.0,VALID,0.0,
2019-03-03, 03:21:06,VALID,915.127,VALID,0.0,VALID,99.167,VALID,0.003,VALID,19.616,INVALID,360.0,VALID,0.0,
2019-03-03, 03:22:06,VALID,915.099,VALID,0.0,VALID,99.174,VALID,0.008,VALID,19.672,INVALID,360.0,VALID,0.0,
2019-03-03, 03:23:06,VALID,915.069,VALID,0.0,VALID,99.194,VALID,0.011,VALID,19.728,INVALID,360.0,VALID,0.0,
2019-03-03, 03:24:06,VALID,915.054,VALID,0.0,VALID,99.196,VALID,0.016,VALID,19.728,INVALID,360.0,VALID,0.0,
2019-03-03, 03:25:06,VALID,915.049,VALID,0.0,VALID,99.211,VALID,0.017,VALID,19.736,INVALID,360.0,VALID,0.0,
2019-03-03, 03:26:06,VALID,915.063,VALID,0.0,VALID,99.192,VALID,0.011,VALID,19.725,INVALID,360.0,VALID,0.0,
2019-03-03, 03:27:06,VALID,915.072,VALID,0.0,VALID,99.173,VALID,0.002,VALID,19.698,INVALID,360.0,VALID,0.0,
2019-03-03, 03:28:06,VALID,915.074,VALID,0.0,VALID,99.178,VALID,0.005,VALID,19.705,INVALID,360.0,VALID,0.0,
2019-03-03, 03:29:06,VALID,915.099,VALID,0.0,VALID,99.245,VALID,0.005,VALID,19.809,INVALID,360.0,VALID,0.0,
2019-03-03, 03:30:06,VALID,915.135,VALID,0.0,VALID,99.245,VALID,0.004,VALID,19.775,INVALID,360.0,VALID,0.0,
2019-03-03, 03:31:06,VALID,915.153,VALID,0.0,VALID,99.138,VALID,0.005,VALID,19.653,INVALID,360.0,VALID,0.0,
2019-03-03, 03:32:06,VALID,915.169,VALID,0.0,VALID,99.126,VALID,-0.013,VALID,19.596,INVALID,360.0,VALID,0.0,
2019-03-03, 03:33:06,VALID,915.185,VALID,0.0,VALID,99.174,VALID,0.002,VALID,19.66,INVALID,360.0,VALID,0.0,
2019-03-03, 03:34:06,VALID,915.194,VALID,0.0,VALID,99.2,VALID,0.006,VALID,19.697,INVALID,360.0,VALID,0.0,
2019-03-03, 03:35:06,VALID,915.205,VALID,0.0,VALID,99.166,VALID,0.007,VALID,19.664,INVALID,360.0,VALID,0.0,
2019-03-03, 03:36:06,VALID,915.191,VALID,0.0,VALID,99.162,VALID,0.004,VALID,19.63,INVALID,360.0,VALID,0.0,
2019-03-03, 03:37:06,VALID,915.189,VALID,0.0,VALID,99.158,VALID,0.016,VALID,19.614,INVALID,360.0,VALID,0.0,
2019-03-03, 03:38:06,VALID,915.172,VALID,0.0,VALID,99.169,VALID,0.011,VALID,19.627,INVALID,360.0,VALID,0.0,